User: anonymous   Login
Location: Fort Wayne
(41.1310°N, 85.1290°W)
Time: 07:29:25
(UTC-05:00)
Language:

OPAL - Orbit

View from above orbital plane
View from above orbital plane
View from above satellite
View from above satellite

Ground track
Ground track

The orbit data is extracted from the following two-line orbital elements,

1 26063U 00004C   15059.97757074  .00000163  00000-0  75005-4 0  9998
2 26063 100.2281 258.5994 0036864 153.8012 206.5043 14.36501292790898
Epoch (UTC): 28 February 2015 23:27:42
Eccentricity: 0.0036864
inclination: 100.2281°
perigee height: 744 km
apogee height: 796 km
right ascension of ascending node: 258.5994°
argument of perigee: 153.8012°
revolutions per day: 14.36501292
mean anomaly at epoch: 206.5043°
orbit number at epoch: 79089

The dashed part of the orbit path shows where the satellite is in the earth's shadow,  

DLR